Time,TemperatureF,DewpointF,PressureIn,WindDirection,WindDirectionDegrees,WindSpeedMPH,WindSpeedGustMPH,Humidity,HourlyPrecipIn,Conditions,Clouds,dailyrainin,SoftwareType,DateUTC
2013-02-14 00:00:00,36.1,35.6,29.74,NW,318,1.0,3.0,98,0.00,,,0.18,Wunderground v.1.15,2013-02-14 05:00:00,
2013-02-14 00:01:00,36.1,35.6,29.74,NW,318,2.0,3.0,98,0.00,,,0.18,Wunderground v.1.15,2013-02-14 05:01:00,
2013-02-14 00:02:00,36.1,35.6,29.74,NW,318,0.0,3.0,98,0.00,,,0.18,Wunderground v.1.15,2013-02-14 05:02:00,
2013-02-14 00:07:00,36.1,35.6,29.74,NNW,336,3.0,3.0,98,0.00,,,0.18,Wunderground v.1.15,2013-02-14 05:07:00,
2013-02-14 00:13:00,36.1,35.6,29.75,NNW,333,2.0,4.0,98,0.00,,,0.18,Wunderground v.1.15,2013-02-14 05:13:00,
2013-02-14 00:18:00,36.2,35.7,29.75,NW,326,4.0,6.0,98,0.00,,,0.00,Wunderground v.1.15,2013-02-14 05:18:00,
2013-02-14 00:23:00,36.3,35.8,29.75,NNW,331,7.0,10.0,98,0.00,,,0.00,Wunderground v.1.15,2013-02-14 05:23:00,
2013-02-14 00:28:00,36.5,36.0,29.76,NE,45,3.0,10.0,98,0.00,,,0.00,Wunderground v.1.15,2013-02-14 05:28:00,
2013-02-14 00:34:00,36.7,36.2,29.76,NNW,332,17.0,17.0,98,0.00,,,0.00,Wunderground v.1.15,2013-02-14 05:34:00,
2013-02-14 00:39:00,36.9,36.4,29.76,NW,317,10.0,17.0,98,0.00,,,0.00,Wunderground v.1.15,2013-02-14 05:39:00,
2013-02-14 00:44:00,37.0,36.5,29.77,NNW,347,9.0,14.0,98,0.00,,,0.00,Wunderground v.1.15,2013-02-14 05:44:00,
2013-02-14 01:08:00,37.2,36.7,29.78,NNW,329,10.0,10.0,98,0.00,,,0.00,Wunderground v.1.15,2013-02-14 06:08:00,
2013-02-14 01:13:00,37.3,36.8,29.78,NNW,328,12.0,12.0,98,0.00,,,0.00,Wunderground v.1.15,2013-02-14 06:13:00,
2013-02-14 01:18:00,37.4,36.9,29.78,NNW,342,12.0,14.0,98,0.00,,,0.00,Wunderground v.1.15,2013-02-14 06:18:00,
2013-02-14 01:23:00,37.4,36.9,29.79,NNW,327,11.0,13.0,98,0.00,,,0.00,Wunderground v.1.15,2013-02-14 06:23:00,
2013-02-14 01:28:00,37.4,36.9,29.79,NNW,327,10.0,13.0,98,0.00,,,0.00,Wunderground v.1.15,2013-02-14 06:28:00,
2013-02-14 01:34:00,37.4,36.9,29.79,NNW,335,11.0,13.0,98,0.00,,,0.00,Wunderground v.1.15,2013-02-14 06:34:00,
2013-02-14 01:39:00,37.4,36.9,29.79,NNW,336,12.0,12.0,98,0.00,,,0.00,Wunderground v.1.15,2013-02-14 06:39:00,
2013-02-14 01:44:00,37.4,36.9,29.80,NNW,327,11.0,12.0,98,0.00,,,0.00,Wunderground v.1.15,2013-02-14 06:44:00,
2013-02-14 01:50:00,37.5,37.0,29.80,NNW,330,7.0,10.0,98,0.00,,,0.00,Wunderground v.1.15,2013-02-14 06:50:00,
2013-02-14 01:55:00,37.5,37.0,29.80,NNW,333,7.0,10.0,98,0.00,,,0.00,Wunderground v.1.15,2013-02-14 06:55:00,
2013-02-14 02:00:00,37.6,37.1,29.81,NW,326,8.0,8.0,98,0.00,,,0.00,Wunderground v.1.15,2013-02-14 07:00:00,
2013-02-14 02:05:00,37.7,37.2,29.81,NW,323,9.0,11.0,98,0.00,,,0.00,Wunderground v.1.15,2013-02-14 07:05:00,
2013-02-14 02:10:00,37.8,37.3,29.82,NW,321,11.0,11.0,98,0.00,,,0.00,Wunderground v.1.15,2013-02-14 07:10:00,
2013-02-14 02:15:00,37.9,37.4,29.82,NW,322,12.0,13.0,98,0.00,,,0.00,Wunderground v.1.15,2013-02-14 07:15:00,
2013-02-14 02:20:00,37.9,37.1,29.81,NW,319,9.0,11.0,97,0.00,,,0.00,Wunderground v.1.15,2013-02-14 07:20:00,
2013-02-14 02:25:00,38.0,37.2,29.82,NW,321,10.0,12.0,97,0.00,,,0.00,Wunderground v.1.15,2013-02-14 07:25:00,
2013-02-14 02:30:00,37.9,37.1,29.82,NW,319,6.0,10.0,97,0.00,,,0.00,Wunderground v.1.15,2013-02-14 07:30:00,
2013-02-14 02:35:00,38.0,37.2,29.82,NW,314,9.0,12.0,97,0.00,,,0.00,Wunderground v.1.15,2013-02-14 07:35:00,
2013-02-14 02:40:00,38.0,37.2,29.82,NW,313,12.0,13.0,97,0.00,,,0.00,Wunderground v.1.15,2013-02-14 07:40:00,
2013-02-14 02:45:00,38.0,37.2,29.82,NW,313,11.0,14.0,97,0.00,,,0.00,Wunderground v.1.15,2013-02-14 07:45:00,
2013-02-14 02:50:00,38.0,37.2,29.82,NW,306,11.0,11.0,97,0.00,,,0.00,Wunderground v.1.15,2013-02-14 07:50:00,
2013-02-14 02:55:00,38.0,37.2,29.83,NW,315,11.0,14.0,97,0.00,,,0.00,Wunderground v.1.15,2013-02-14 07:55:00,
2013-02-14 03:00:00,38.0,37.2,29.83,NW,306,10.0,12.0,97,0.00,,,0.00,Wunderground v.1.15,2013-02-14 08:00:00,
2013-02-14 03:05:00,37.9,37.1,29.83,WNW,303,12.0,12.0,97,0.00,,,0.00,Wunderground v.1.15,2013-02-14 08:05:00,
2013-02-14 03:10:00,38.0,37.2,29.83,NW,316,11.0,11.0,97,0.00,,,0.00,Wunderground v.1.15,2013-02-14 08:10:00,
2013-02-14 03:15:00,38.0,37.0,29.83,NNW,330,10.0,12.0,96,0.00,,,0.00,Wunderground v.1.15,2013-02-14 08:15:00,
2013-02-14 03:20:00,38.0,37.2,29.83,NW,325,6.0,10.0,97,0.00,,,0.00,Wunderground v.1.15,2013-02-14 08:20:00,
2013-02-14 03:25:00,38.0,37.0,29.82,NW,325,6.0,10.0,96,0.00,,,0.00,Wunderground v.1.15,2013-02-14 08:25:00,
2013-02-14 03:30:00,38.0,37.0,29.82,NW,316,6.0,6.0,96,0.00,,,0.00,Wunderground v.1.15,2013-02-14 08:30:00,
2013-02-14 03:35:00,38.0,37.0,29.83,NW,313,10.0,10.0,96,0.00,,,0.00,Wunderground v.1.15,2013-02-14 08:35:00,
2013-02-14 03:40:00,38.0,37.0,29.84,NW,307,9.0,10.0,96,0.00,,,0.00,Wunderground v.1.15,2013-02-14 08:40:00,
2013-02-14 03:45:00,38.0,37.0,29.84,NW,309,12.0,15.0,96,0.00,,,0.00,Wunderground v.1.15,2013-02-14 08:45:00,
2013-02-14 03:50:00,38.1,37.1,29.84,NW,308,12.0,12.0,96,0.00,,,0.00,Wunderground v.1.15,2013-02-14 08:50:00,
2013-02-14 03:55:00,38.1,37.1,29.85,NW,309,11.0,13.0,96,0.00,,,0.00,Wunderground v.1.15,2013-02-14 08:55:00,
2013-02-14 04:00:00,38.0,37.0,29.85,NW,304,10.0,11.0,96,0.00,,,0.00,Wunderground v.1.15,2013-02-14 09:00:00,
2013-02-14 04:05:00,38.0,37.0,29.86,WNW,300,11.0,13.0,96,0.00,,,0.00,Wunderground v.1.15,2013-02-14 09:05:00,
2013-02-14 04:10:00,38.0,37.0,29.85,NW,312,10.0,11.0,96,0.00,,,0.00,Wunderground v.1.15,2013-02-14 09:10:00,
2013-02-14 04:15:00,37.9,36.9,29.85,NW,311,11.0,11.0,96,0.00,,,0.00,Wunderground v.1.15,2013-02-14 09:15:00,
2013-02-14 04:20:00,37.9,36.9,29.86,NW,304,10.0,11.0,96,0.00,,,0.00,Wunderground v.1.15,2013-02-14 09:20:00,
2013-02-14 04:25:00,37.9,36.9,29.86,NW,313,12.0,13.0,96,0.00,,,0.00,Wunderground v.1.15,2013-02-14 09:25:00,
2013-02-14 04:30:00,37.8,36.8,29.86,NW,311,12.0,12.0,96,0.00,,,0.00,Wunderground v.1.15,2013-02-14 09:30:00,
2013-02-14 04:35:00,37.7,36.7,29.87,NW,315,10.0,13.0,96,0.00,,,0.00,Wunderground v.1.15,2013-02-14 09:35:00,
2013-02-14 04:40:00,37.7,36.7,29.87,NW,310,12.0,12.0,96,0.00,,,0.00,Wunderground v.1.15,2013-02-14 09:40:00,
2013-02-14 04:45:00,37.7,36.7,29.87,NW,317,13.0,14.0,96,0.00,,,0.00,Wunderground v.1.15,2013-02-14 09:45:00,
2013-02-14 04:50:00,37.7,36.7,29.87,NW,323,12.0,12.0,96,0.00,,,0.00,Wunderground v.1.15,2013-02-14 09:50:00,
2013-02-14 04:55:00,37.7,36.7,29.88,NW,322,11.0,14.0,96,0.00,,,0.00,Wunderground v.1.15,2013-02-14 09:55:00,
2013-02-14 05:00:00,37.7,36.7,29.88,NW,311,9.0,12.0,96,0.00,,,0.00,Wunderground v.1.15,2013-02-14 10:00:00,
2013-02-14 05:05:00,37.7,36.7,29.88,NW,318,10.0,13.0,96,0.00,,,0.00,Wunderground v.1.15,2013-02-14 10:05:00,
2013-02-14 05:10:00,37.8,36.8,29.88,NW,317,10.0,11.0,96,0.00,,,0.00,Wunderground v.1.15,2013-02-14 10:10:00,
2013-02-14 05:15:00,37.8,36.8,29.88,NW,319,10.0,13.0,96,0.00,,,0.00,Wunderground v.1.15,2013-02-14 10:15:00,
2013-02-14 05:20:00,37.8,36.8,29.88,NW,314,11.0,13.0,96,0.00,,,0.00,Wunderground v.1.15,2013-02-14 10:20:00,
2013-02-14 05:25:00,37.8,36.8,29.89,NW,322,11.0,14.0,96,0.00,,,0.00,Wunderground v.1.15,2013-02-14 10:25:00,
2013-02-14 05:31:00,37.8,36.8,29.89,NW,319,11.0,13.0,96,0.00,,,0.00,Wunderground v.1.15,2013-02-14 10:31:00,
2013-02-14 05:36:00,37.9,36.9,29.89,NW,312,11.0,14.0,96,0.00,,,0.00,Wunderground v.1.15,2013-02-14 10:36:00,
2013-02-14 05:41:00,37.9,36.9,29.89,NW,313,11.0,12.0,96,0.00,,,0.00,Wunderground v.1.15,2013-02-14 10:41:00,
2013-02-14 05:46:00,38.0,37.0,29.90,NW,326,11.0,13.0,96,0.00,,,0.00,Wunderground v.1.15,2013-02-14 10:46:00,
2013-02-14 05:51:00,38.0,37.0,29.90,NW,309,11.0,11.0,96,0.00,,,0.00,Wunderground v.1.15,2013-02-14 10:51:00,
2013-02-14 05:56:00,38.0,37.0,29.90,NW,313,10.0,12.0,96,0.00,,,0.00,Wunderground v.1.15,2013-02-14 10:56:00,
2013-02-14 06:01:00,38.0,36.7,29.90,NW,317,11.0,12.0,95,0.00,,,0.00,Wunderground v.1.15,2013-02-14 11:01:00,
2013-02-14 06:05:00,38.0,36.7,29.91,NW,318,11.0,13.0,95,0.00,,,0.00,Wunderground v.1.15,2013-02-14 11:05:00,
2013-02-14 06:11:00,38.1,36.8,29.91,NW,320,11.0,14.0,95,0.00,,,0.00,Wunderground v.1.15,2013-02-14 11:11:00,
2013-02-14 06:16:00,38.1,36.8,29.91,NW,322,13.0,14.0,95,0.00,,,0.00,Wunderground v.1.15,2013-02-14 11:16:00,
2013-02-14 06:21:00,38.1,36.8,29.91,NW,316,10.0,13.0,95,0.00,,,0.00,Wunderground v.1.15,2013-02-14 11:21:00,
2013-02-14 06:26:00,38.2,36.9,29.91,NW,313,10.0,13.0,95,0.00,,,0.00,Wunderground v.1.15,2013-02-14 11:26:00,
2013-02-14 06:31:00,38.1,36.8,29.91,NW,311,13.0,13.0,95,0.00,,,0.00,Wunderground v.1.15,2013-02-14 11:31:00,
2013-02-14 06:36:00,38.1,36.8,29.92,NW,315,11.0,14.0,95,0.00,,,0.00,Wunderground v.1.15,2013-02-14 11:36:00,
2013-02-14 06:41:00,38.2,36.9,29.92,NW,313,12.0,13.0,95,0.00,,,0.00,Wunderground v.1.15,2013-02-14 11:41:00,
2013-02-14 06:46:00,38.2,36.6,29.92,NW,315,12.0,14.0,94,0.00,,,0.00,Wunderground v.1.15,2013-02-14 11:46:00,
2013-02-14 06:51:00,38.2,36.6,29.92,NW,315,12.0,14.0,94,0.00,,,0.00,Wunderground v.1.15,2013-02-14 11:51:00,
2013-02-14 06:56:00,38.2,36.6,29.92,NW,318,11.0,14.0,94,0.00,,,0.00,Wunderground v.1.15,2013-02-14 11:56:00,
2013-02-14 07:01:00,38.3,36.7,29.92,NW,317,11.0,15.0,94,0.00,,,0.00,Wunderground v.1.15,2013-02-14 12:01:00,
2013-02-14 07:06:00,38.3,36.5,29.92,NW,317,12.0,15.0,93,0.00,,,0.00,Wunderground v.1.15,2013-02-14 12:06:00,
2013-02-14 07:11:00,38.4,36.6,29.93,NW,306,12.0,14.0,93,0.00,,,0.00,Wunderground v.1.15,2013-02-14 12:11:00,
2013-02-14 07:16:00,38.4,36.3,29.94,NW,326,10.0,16.0,92,0.00,,,0.00,Wunderground v.1.15,2013-02-14 12:16:00,
2013-02-14 07:21:00,38.4,36.3,29.94,NW,317,11.0,13.0,92,0.00,,,0.00,Wunderground v.1.15,2013-02-14 12:21:00,
2013-02-14 07:26:00,38.4,36.3,29.94,NW,313,13.0,13.0,92,0.00,,,0.00,Wunderground v.1.15,2013-02-14 12:26:00,
2013-02-14 07:31:00,38.4,36.3,29.94,NW,318,12.0,14.0,92,0.00,,,0.00,Wunderground v.1.15,2013-02-14 12:31:00,
2013-02-14 07:36:00,38.4,36.0,29.95,NW,319,13.0,15.0,91,0.00,,,0.00,Wunderground v.1.15,2013-02-14 12:36:00,
2013-02-14 07:41:00,38.4,36.0,29.96,NW,316,13.0,15.0,91,0.00,,,0.00,Wunderground v.1.15,2013-02-14 12:41:00,
2013-02-14 07:46:00,38.4,36.0,29.95,NW,314,12.0,16.0,91,0.00,,,0.00,Wunderground v.1.15,2013-02-14 12:46:00,
2013-02-14 07:51:00,38.4,35.7,29.96,NW,318,12.0,14.0,90,0.00,,,0.00,Wunderground v.1.15,2013-02-14 12:51:00,
2013-02-14 07:56:00,38.4,35.7,29.96,NW,317,12.0,15.0,90,0.00,,,0.00,Wunderground v.1.15,2013-02-14 12:56:00,
2013-02-14 08:01:00,38.4,36.0,29.96,NW,324,10.0,15.0,91,0.00,,,0.00,Wunderground v.1.15,2013-02-14 13:01:00,
2013-02-14 08:06:00,38.4,35.7,29.96,NW,323,13.0,15.0,90,0.00,,,0.00,Wunderground v.1.15,2013-02-14 13:06:00,
2013-02-14 08:11:00,38.4,35.7,29.96,NW,326,11.0,15.0,90,0.00,,,0.00,Wunderground v.1.15,2013-02-14 13:11:00,
2013-02-14 08:16:00,38.4,35.7,29.96,NNW,330,15.0,15.0,90,0.00,,,0.00,Wunderground v.1.15,2013-02-14 13:16:00,
2013-02-14 08:21:00,38.4,35.4,29.97,NNW,327,12.0,15.0,89,0.00,,,0.00,Wunderground v.1.15,2013-02-14 13:21:00,
2013-02-14 08:26:00,38.4,35.4,29.97,NNW,327,13.0,15.0,89,0.00,,,0.00,Wunderground v.1.15,2013-02-14 13:26:00,
2013-02-14 08:31:00,38.4,35.2,29.97,NNW,328,14.0,14.0,88,0.00,,,0.00,Wunderground v.1.15,2013-02-14 13:31:00,
2013-02-14 08:36:00,38.4,35.2,29.97,NNW,329,13.0,16.0,88,0.00,,,0.00,Wunderground v.1.15,2013-02-14 13:36:00,
2013-02-14 08:41:00,38.4,35.4,29.98,NW,325,12.0,13.0,89,0.00,,,0.00,Wunderground v.1.15,2013-02-14 13:41:00,
2013-02-14 08:46:00,38.4,35.2,29.98,NW,326,12.0,14.0,88,0.00,,,0.00,Wunderground v.1.15,2013-02-14 13:46:00,
2013-02-14 08:51:00,38.4,34.9,29.98,NW,324,11.0,13.0,87,0.00,,,0.00,Wunderground v.1.15,2013-02-14 13:51:00,
2013-02-14 08:56:00,38.5,35.0,29.98,NNW,331,12.0,13.0,87,0.00,,,0.00,Wunderground v.1.15,2013-02-14 13:56:00,
2013-02-14 09:01:00,38.5,35.0,29.98,NNW,329,10.0,12.0,87,0.00,,,0.00,Wunderground v.1.15,2013-02-14 14:01:00,
2013-02-14 09:06:00,38.6,35.1,29.99,NNW,330,10.0,13.0,87,0.00,,,0.00,Wunderground v.1.15,2013-02-14 14:06:00,
2013-02-14 09:11:00,38.5,34.7,29.99,NNW,331,13.0,14.0,86,0.00,,,0.00,Wunderground v.1.15,2013-02-14 14:11:00,
2013-02-14 09:16:00,38.6,34.8,29.99,NW,326,12.0,14.0,86,0.00,,,0.00,Wunderground v.1.15,2013-02-14 14:16:00,
2013-02-14 09:21:00,38.6,34.5,29.99,NNW,327,11.0,12.0,85,0.00,,,0.00,Wunderground v.1.15,2013-02-14 14:21:00,
2013-02-14 09:26:00,38.6,34.5,29.99,NW,325,12.0,13.0,85,0.00,,,0.00,Wunderground v.1.15,2013-02-14 14:26:00,
2013-02-14 09:31:00,38.7,34.6,30.00,NW,322,9.0,11.0,85,0.00,,,0.00,Wunderground v.1.15,2013-02-14 14:31:00,
2013-02-14 09:36:00,38.8,34.4,30.00,NNW,330,10.0,12.0,84,0.00,,,0.00,Wunderground v.1.15,2013-02-14 14:36:00,
2013-02-14 09:41:00,38.9,34.5,30.00,NNW,329,10.0,12.0,84,0.00,,,0.00,Wunderground v.1.15,2013-02-14 14:41:00,
2013-02-14 09:47:00,39.0,34.6,30.00,NNW,336,9.0,12.0,84,0.00,,,0.00,Wunderground v.1.15,2013-02-14 14:47:00,
2013-02-14 09:52:00,39.1,35.0,30.00,NW,326,10.0,11.0,85,0.00,,,0.00,Wunderground v.1.15,2013-02-14 14:52:00,
2013-02-14 09:57:00,39.1,34.7,30.00,NNW,329,10.0,14.0,84,0.00,,,0.00,Wunderground v.1.15,2013-02-14 14:57:00,
2013-02-14 10:02:00,39.3,34.9,30.00,NW,322,11.0,12.0,84,0.00,,,0.00,Wunderground v.1.15,2013-02-14 15:02:00,
2013-02-14 10:07:00,39.4,35.0,30.00,NNW,342,8.0,12.0,84,0.00,,,0.00,Wunderground v.1.15,2013-02-14 15:07:00,
2013-02-14 10:12:00,39.6,34.9,30.00,NW,322,6.0,12.0,83,0.00,,,0.00,Wunderground v.1.15,2013-02-14 15:12:00,
2013-02-14 10:17:00,39.7,34.7,30.00,NNW,327,8.0,12.0,82,0.00,,,0.00,Wunderground v.1.15,2013-02-14 15:17:00,
2013-02-14 10:22:00,39.7,34.7,30.00,NNW,336,10.0,11.0,82,0.00,,,0.00,Wunderground v.1.15,2013-02-14 15:22:00,
2013-02-14 10:27:00,39.7,34.3,30.01,NNW,331,10.0,12.0,81,0.00,,,0.00,Wunderground v.1.15,2013-02-14 15:27:00,
2013-02-14 10:32:00,39.7,34.3,30.01,NNW,331,9.0,11.0,81,0.00,,,0.00,Wunderground v.1.15,2013-02-14 15:32:00,
2013-02-14 10:38:00,39.7,34.7,30.01,NNW,331,10.0,11.0,82,0.00,,,0.00,Wunderground v.1.15,2013-02-14 15:38:00,
2013-02-14 10:43:00,39.8,34.8,30.01,NNW,327,10.0,11.0,82,0.00,,,0.00,Wunderground v.1.15,2013-02-14 15:43:00,
2013-02-14 10:48:00,39.8,34.4,30.01,NNW,334,9.0,11.0,81,0.00,,,0.00,Wunderground v.1.15,2013-02-14 15:48:00,
2013-02-14 10:53:00,39.9,34.5,30.00,NW,315,7.0,11.0,81,0.00,,,0.00,Wunderground v.1.15,2013-02-14 15:53:00,
2013-02-14 10:58:00,40.1,34.7,30.00,NNW,329,7.0,11.0,81,0.00,,,0.00,Wunderground v.1.15,2013-02-14 15:58:00,
2013-02-14 11:03:00,40.2,34.8,30.00,NNW,327,4.0,11.0,81,0.00,,,0.00,Wunderground v.1.15,2013-02-14 16:03:00,
2013-02-14 11:08:00,40.4,35.3,30.00,NW,317,6.0,11.0,82,0.00,,,0.00,Wunderground v.1.15,2013-02-14 16:08:00,
2013-02-14 11:13:00,40.6,35.5,30.00,NW,318,5.0,7.0,82,0.00,,,0.00,Wunderground v.1.15,2013-02-14 16:13:00,
2013-02-14 11:18:00,40.8,35.4,30.00,NNW,334,3.0,7.0,81,0.00,,,0.00,Wunderground v.1.15,2013-02-14 16:18:00,
2013-02-14 11:23:00,40.9,35.2,30.00,WNW,301,5.0,9.0,80,0.00,,,0.00,Wunderground v.1.15,2013-02-14 16:23:00,
2013-02-14 11:28:00,41.0,35.3,30.00,NW,321,6.0,9.0,80,0.00,,,0.00,Wunderground v.1.15,2013-02-14 16:28:00,
2013-02-14 11:33:00,41.4,36.0,30.00,NNW,329,3.0,5.0,81,0.00,,,0.00,Wunderground v.1.15,2013-02-14 16:33:00,
2013-02-14 11:38:00,41.5,35.5,30.00,NNW,327,6.0,9.0,79,0.00,,,0.00,Wunderground v.1.15,2013-02-14 16:38:00,
2013-02-14 11:43:00,41.5,35.2,30.00,NNW,327,6.0,7.0,78,0.00,,,0.00,Wunderground v.1.15,2013-02-14 16:43:00,
2013-02-14 11:48:00,41.4,34.4,30.00,NNW,327,5.0,7.0,76,0.00,,,0.00,Wunderground v.1.15,2013-02-14 16:48:00,
2013-02-14 11:53:00,41.4,34.4,30.00,NW,326,4.0,6.0,76,0.00,,,0.00,Wunderground v.1.15,2013-02-14 16:53:00,
2013-02-14 11:58:00,41.3,34.0,30.00,NNW,327,4.0,6.0,75,0.00,,,0.00,Wunderground v.1.15,2013-02-14 16:58:00,
2013-02-14 12:03:00,41.3,34.0,30.00,NNW,327,3.0,6.0,75,0.00,,,0.00,Wunderground v.1.15,2013-02-14 17:03:00,
2013-02-14 12:08:00,41.3,33.6,29.99,NNW,327,5.0,6.0,74,0.00,,,0.00,Wunderground v.1.15,2013-02-14 17:08:00,
2013-02-14 12:13:00,41.2,33.5,29.99,NW,326,4.0,5.0,74,0.00,,,0.00,Wunderground v.1.15,2013-02-14 17:13:00,
2013-02-14 12:18:00,41.3,33.6,30.00,NW,326,2.0,5.0,74,0.00,,,0.00,Wunderground v.1.15,2013-02-14 17:18:00,
2013-02-14 12:23:00,41.3,33.6,29.99,NNW,327,2.0,4.0,74,0.00,,,0.00,Wunderground v.1.15,2013-02-14 17:23:00,
2013-02-14 12:28:00,41.4,33.4,29.99,NNW,327,4.0,4.0,73,0.00,,,0.00,Wunderground v.1.15,2013-02-14 17:28:00,
2013-02-14 12:33:00,41.5,33.5,29.99,NNW,327,4.0,5.0,73,0.00,,,0.00,Wunderground v.1.15,2013-02-14 17:33:00,
2013-02-14 12:38:00,41.6,33.9,29.98,NW,326,3.0,5.0,74,0.00,,,0.00,Wunderground v.1.15,2013-02-14 17:38:00,
2013-02-14 12:44:00,41.8,34.5,29.98,NNW,327,5.0,5.0,75,0.00,,,0.00,Wunderground v.1.15,2013-02-14 17:44:00,
2013-02-14 12:49:00,42.0,34.0,29.98,NW,326,3.0,5.0,73,0.00,,,0.00,Wunderground v.1.15,2013-02-14 17:49:00,
2013-02-14 12:54:00,42.2,33.5,29.98,NNW,327,3.0,5.0,71,0.00,,,0.00,Wunderground v.1.15,2013-02-14 17:54:00,
2013-02-14 12:59:00,42.4,34.0,29.98,NW,326,4.0,5.0,72,0.00,,,0.00,Wunderground v.1.15,2013-02-14 17:59:00,
2013-02-14 13:04:00,42.5,34.8,29.99,NW,326,3.0,4.0,74,0.00,,,0.00,Wunderground v.1.15,2013-02-14 18:04:00,
2013-02-14 13:09:00,42.5,34.1,29.98,NNW,327,2.0,4.0,72,0.00,,,0.00,Wunderground v.1.15,2013-02-14 18:09:00,
2013-02-14 13:14:00,42.8,35.8,29.99,South,181,5.0,7.0,76,0.00,,,0.00,Wunderground v.1.15,2013-02-14 18:14:00,
2013-02-14 13:19:00,43.2,35.8,29.98,SSE,148,1.0,7.0,75,0.00,,,0.00,Wunderground v.1.15,2013-02-14 18:19:00,
2013-02-14 13:24:00,43.6,36.2,29.98,SE,128,2.0,5.0,75,0.00,,,0.00,Wunderground v.1.15,2013-02-14 18:24:00,
2013-02-14 13:29:00,43.8,35.7,29.98,SE,128,2.0,5.0,73,0.00,,,0.00,Wunderground v.1.15,2013-02-14 18:29:00,
2013-02-14 13:34:00,44.0,36.2,29.98,SE,128,3.0,4.0,74,0.00,,,0.00,Wunderground v.1.15,2013-02-14 18:34:00,
2013-02-14 13:39:00,44.1,35.6,29.97,SE,127,3.0,4.0,72,0.00,,,0.00,Wunderground v.1.15,2013-02-14 18:39:00,
2013-02-14 13:44:00,44.3,36.5,29.98,SE,131,2.0,4.0,74,0.00,,,0.00,Wunderground v.1.15,2013-02-14 18:44:00,
2013-02-14 13:49:00,44.7,36.9,29.98,SE,130,2.0,4.0,74,0.00,,,0.00,Wunderground v.1.15,2013-02-14 18:49:00,
2013-02-14 13:54:00,44.9,36.4,29.98,SE,132,3.0,4.0,72,0.00,,,0.00,Wunderground v.1.15,2013-02-14 18:54:00,
2013-02-14 13:59:00,44.6,36.1,29.99,SE,128,4.0,6.0,72,0.00,,,0.00,Wunderground v.1.15,2013-02-14 18:59:00,
2013-02-14 14:04:00,44.6,35.4,29.98,SE,129,6.0,6.0,70,0.00,,,0.00,Wunderground v.1.15,2013-02-14 19:04:00,
2013-02-14 14:09:00,44.3,35.5,29.98,ESE,115,3.0,6.0,71,0.00,,,0.00,Wunderground v.1.15,2013-02-14 19:09:00,
2013-02-14 14:14:00,44.3,35.5,29.98,SE,128,2.0,5.0,71,0.00,,,0.00,Wunderground v.1.15,2013-02-14 19:14:00,
2013-02-14 14:19:00,44.1,36.0,29.98,SE,129,2.0,5.0,73,0.00,,,0.00,Wunderground v.1.15,2013-02-14 19:19:00,
2013-02-14 14:24:00,44.3,36.5,29.98,ESE,122,5.0,5.0,74,0.00,,,0.00,Wunderground v.1.15,2013-02-14 19:24:00,
2013-02-14 14:29:00,44.3,35.8,29.97,ESE,123,1.0,5.0,72,0.00,,,0.00,Wunderground v.1.15,2013-02-14 19:29:00,
2013-02-14 14:34:00,44.3,36.2,29.97,SE,132,2.0,4.0,73,0.00,,,0.00,Wunderground v.1.15,2013-02-14 19:34:00,
2013-02-14 14:39:00,44.5,36.7,29.97,SE,132,3.0,4.0,74,0.00,,,0.00,Wunderground v.1.15,2013-02-14 19:39:00,
2013-02-14 14:44:00,44.5,36.7,29.97,SE,130,1.0,5.0,74,0.00,,,0.00,Wunderground v.1.15,2013-02-14 19:44:00,
2013-02-14 14:49:00,44.5,36.4,29.97,SE,135,4.0,6.0,73,0.00,,,0.00,Wunderground v.1.15,2013-02-14 19:49:00,
2013-02-14 14:54:00,44.4,36.6,29.98,SE,130,2.0,4.0,74,0.00,,,0.00,Wunderground v.1.15,2013-02-14 19:54:00,
2013-02-14 14:59:00,44.4,36.3,29.98,SE,130,2.0,4.0,73,0.00,,,0.00,Wunderground v.1.15,2013-02-14 19:59:00,
2013-02-14 15:04:00,44.5,36.7,29.98,SE,127,1.0,4.0,74,0.00,,,0.00,Wunderground v.1.15,2013-02-14 20:04:00,
2013-02-14 15:09:00,44.7,36.6,29.98,SE,126,2.0,4.0,73,0.00,,,0.00,Wunderground v.1.15,2013-02-14 20:09:00,
2013-02-14 15:14:00,44.9,36.4,29.98,SE,126,0.0,3.0,72,0.00,,,0.00,Wunderground v.1.15,2013-02-14 20:14:00,
2013-02-14 15:19:00,45.0,36.2,29.98,SE,126,1.0,4.0,71,0.00,,,0.00,Wunderground v.1.15,2013-02-14 20:19:00,
2013-02-14 15:24:00,45.1,35.2,29.98,SE,126,0.0,3.0,68,0.00,,,0.00,Wunderground v.1.15,2013-02-14 20:24:00,
2013-02-14 15:29:00,45.4,35.5,29.98,SE,126,1.0,3.0,68,0.00,,,0.00,Wunderground v.1.15,2013-02-14 20:29:00,
2013-02-14 15:34:00,45.6,35.6,29.98,SE,126,2.0,3.0,68,0.00,,,0.00,Wunderground v.1.15,2013-02-14 20:34:00,
2013-02-14 15:39:00,45.9,36.3,29.98,SE,126,2.0,3.0,69,0.00,,,0.00,Wunderground v.1.15,2013-02-14 20:39:00,
2013-02-14 15:44:00,46.0,35.7,29.98,SE,126,0.0,3.0,67,0.00,,,0.00,Wunderground v.1.15,2013-02-14 20:44:00,
2013-02-14 15:50:00,46.0,35.3,29.98,SE,126,0.0,1.0,66,0.00,,,0.00,Wunderground v.1.15,2013-02-14 20:50:00,
2013-02-14 15:55:00,46.0,35.7,29.98,SE,126,1.0,3.0,67,0.00,,,0.00,Wunderground v.1.15,2013-02-14 20:55:00,
2013-02-14 16:00:00,46.2,36.2,29.98,SE,129,2.0,2.0,68,0.00,,,0.00,Wunderground v.1.15,2013-02-14 21:00:00,
2013-02-14 16:05:00,46.2,35.8,29.97,SE,129,2.0,4.0,67,0.00,,,0.00,Wunderground v.1.15,2013-02-14 21:05:00,
2013-02-14 16:10:00,46.3,35.9,29.97,SE,129,1.0,2.0,67,0.00,,,0.00,Wunderground v.1.15,2013-02-14 21:10:00,
2013-02-14 16:15:00,46.1,35.7,29.97,SE,130,0.0,5.0,67,0.00,,,0.00,Wunderground v.1.15,2013-02-14 21:15:00,
2013-02-14 16:20:00,46.3,35.9,29.97,SE,130,2.0,2.0,67,0.00,,,0.00,Wunderground v.1.15,2013-02-14 21:20:00,
2013-02-14 16:25:00,46.1,35.4,29.97,SE,130,1.0,4.0,66,0.00,,,0.00,Wunderground v.1.15,2013-02-14 21:25:00,
2013-02-14 16:30:00,46.1,36.1,29.97,SE,130,0.0,2.0,68,0.00,,,0.00,Wunderground v.1.15,2013-02-14 21:30:00,
2013-02-14 16:35:00,46.1,36.1,29.97,SE,130,3.0,4.0,68,0.00,,,0.00,Wunderground v.1.15,2013-02-14 21:35:00,
2013-02-14 16:40:00,45.9,36.3,29.96,SE,130,2.0,2.0,69,0.00,,,0.00,Wunderground v.1.15,2013-02-14 21:40:00,
2013-02-14 16:45:00,45.7,36.5,29.96,SE,130,2.0,3.0,70,0.00,,,0.00,Wunderground v.1.15,2013-02-14 21:45:00,
2013-02-14 16:50:00,45.4,36.5,29.96,SE,130,0.0,2.0,71,0.00,,,0.00,Wunderground v.1.15,2013-02-14 21:50:00,
2013-02-14 16:55:00,45.1,37.0,29.97,SE,130,1.0,3.0,73,0.00,,,0.00,Wunderground v.1.15,2013-02-14 21:55:00,
2013-02-14 17:00:00,45.0,36.9,29.97,SE,130,1.0,2.0,73,0.00,,,0.00,Wunderground v.1.15,2013-02-14 22:00:00,
2013-02-14 17:05:00,44.9,36.1,29.98,SE,142,3.0,6.0,71,0.00,,,0.00,Wunderground v.1.15,2013-02-14 22:05:00,
2013-02-14 17:10:00,44.8,36.0,29.98,SE,143,1.0,2.0,71,0.00,,,0.00,Wunderground v.1.15,2013-02-14 22:10:00,
2013-02-14 17:15:00,44.6,35.8,29.98,SE,142,0.0,3.0,71,0.00,,,0.00,Wunderground v.1.15,2013-02-14 22:15:00,
2013-02-14 17:20:00,44.5,35.7,29.98,SE,143,0.0,1.0,71,0.00,,,0.00,Wunderground v.1.15,2013-02-14 22:20:00,
2013-02-14 17:25:00,44.3,35.8,29.99,SE,142,1.0,2.0,72,0.00,,,0.00,Wunderground v.1.15,2013-02-14 22:25:00,
2013-02-14 17:30:00,44.2,36.4,29.98,SE,142,0.0,1.0,74,0.00,,,0.00,Wunderground v.1.15,2013-02-14 22:30:00,
2013-02-14 17:35:00,44.1,37.0,29.98,SE,143,0.0,2.0,76,0.00,,,0.00,Wunderground v.1.15,2013-02-14 22:35:00,
2013-02-14 17:40:00,43.9,37.2,29.98,SE,142,0.0,0.0,77,0.00,,,0.00,Wunderground v.1.15,2013-02-14 22:40:00,
2013-02-14 17:45:00,43.7,37.3,29.98,SE,143,0.0,1.0,78,0.00,,,0.00,Wunderground v.1.15,2013-02-14 22:45:00,
2013-02-14 17:50:00,43.3,37.2,29.99,SE,143,0.0,1.0,79,0.00,,,0.00,Wunderground v.1.15,2013-02-14 22:50:00,
2013-02-14 17:55:00,42.8,37.1,29.99,SE,142,0.0,1.0,80,0.00,,,0.00,Wunderground v.1.15,2013-02-14 22:55:00,
2013-02-14 18:00:00,42.5,36.8,29.99,SE,142,0.0,0.0,80,0.00,,,0.00,Wunderground v.1.15,2013-02-14 23:00:00,
2013-02-14 18:05:00,42.3,36.6,30.00,SE,143,0.0,0.0,80,0.00,,,0.00,Wunderground v.1.15,2013-02-14 23:05:00,
2013-02-14 18:10:00,42.2,36.5,30.00,SE,143,0.0,0.0,80,0.00,,,0.00,Wunderground v.1.15,2013-02-14 23:10:00,
2013-02-14 18:15:00,42.0,36.3,29.99,SE,143,0.0,0.0,80,0.00,,,0.00,Wunderground v.1.15,2013-02-14 23:15:00,
2013-02-14 18:20:00,41.5,35.8,29.99,SE,142,1.0,1.0,80,0.00,,,0.00,Wunderground v.1.15,2013-02-14 23:20:00,
2013-02-14 18:25:00,41.0,35.0,30.00,SE,143,0.0,2.0,79,0.00,,,0.00,Wunderground v.1.15,2013-02-14 23:25:00,
2013-02-14 18:30:00,41.0,35.3,29.99,SE,143,1.0,2.0,80,0.00,,,0.00,Wunderground v.1.15,2013-02-14 23:30:00,
2013-02-14 18:35:00,41.0,35.3,30.00,SE,143,0.0,2.0,80,0.00,,,0.00,Wunderground v.1.15,2013-02-14 23:35:00,
2013-02-14 18:40:00,40.9,35.5,30.00,SE,142,0.0,1.0,81,0.00,,,0.00,Wunderground v.1.15,2013-02-14 23:40:00,
2013-02-14 18:45:00,40.9,35.5,30.00,SE,143,0.0,2.0,81,0.00,,,0.00,Wunderground v.1.15,2013-02-14 23:45:00,
2013-02-14 18:50:00,40.9,35.5,30.00,SE,143,1.0,1.0,81,0.00,,,0.00,Wunderground v.1.15,2013-02-14 23:50:00,
2013-02-14 18:55:00,40.9,35.8,30.00,SE,143,0.0,3.0,82,0.00,,,0.00,Wunderground v.1.15,2013-02-14 23:55:00,
2013-02-14 19:00:00,41.0,35.9,30.00,SE,142,2.0,2.0,82,0.00,,,0.00,Wunderground v.1.15,2013-02-15 00:00:00,
2013-02-14 19:05:00,41.2,36.1,30.00,SE,142,1.0,5.0,82,0.00,,,0.00,Wunderground v.1.15,2013-02-15 00:05:00,
2013-02-14 19:10:00,41.3,36.5,30.00,SSE,159,6.0,6.0,83,0.00,,,0.00,Wunderground v.1.15,2013-02-15 00:10:00,
2013-02-14 19:15:00,41.4,36.9,30.00,South,177,6.0,9.0,84,0.00,,,0.00,Wunderground v.1.15,2013-02-15 00:15:00,
2013-02-14 19:20:00,41.4,37.2,30.00,South,188,4.0,4.0,85,0.00,,,0.00,Wunderground v.1.15,2013-02-15 00:20:00,
2013-02-14 19:25:00,41.3,37.1,30.00,South,171,3.0,9.0,85,0.00,,,0.00,Wunderground v.1.15,2013-02-15 00:25:00,
2013-02-14 19:30:00,41.1,37.2,30.00,SSE,167,5.0,5.0,86,0.00,,,0.00,Wunderground v.1.15,2013-02-15 00:30:00,
2013-02-14 19:35:00,41.0,37.1,30.00,SSE,166,4.0,6.0,86,0.00,,,0.00,Wunderground v.1.15,2013-02-15 00:35:00,
2013-02-14 19:40:00,40.8,36.9,30.00,South,169,4.0,6.0,86,0.00,,,0.00,Wunderground v.1.15,2013-02-15 00:40:00,
2013-02-14 19:45:00,40.7,36.8,30.00,South,169,5.0,10.0,86,0.00,,,0.00,Wunderground v.1.15,2013-02-15 00:45:00,
2013-02-14 19:50:00,40.6,36.4,30.00,SSE,167,4.0,7.0,85,0.00,,,0.00,Wunderground v.1.15,2013-02-15 00:50:00,
2013-02-14 19:55:00,40.5,36.6,30.00,South,176,3.0,11.0,86,0.00,,,0.00,Wunderground v.1.15,2013-02-15 00:55:00,
2013-02-14 20:00:00,40.6,36.7,30.00,South,179,8.0,12.0,86,0.00,,,0.00,Wunderground v.1.15,2013-02-15 01:00:00,
2013-02-14 20:05:00,40.7,36.8,30.00,South,175,7.0,13.0,86,0.00,,,0.00,Wunderground v.1.15,2013-02-15 01:05:00,
2013-02-14 20:10:00,40.7,36.8,30.00,South,177,10.0,10.0,86,0.00,,,0.00,Wunderground v.1.15,2013-02-15 01:10:00,
2013-02-14 20:15:00,40.6,37.0,30.00,South,180,5.0,14.0,87,0.00,,,0.00,Wunderground v.1.15,2013-02-15 01:15:00,
2013-02-14 20:20:00,40.6,37.0,30.01,South,173,7.0,11.0,87,0.00,,,0.00,Wunderground v.1.15,2013-02-15 01:20:00,
2013-02-14 20:25:00,40.6,37.0,30.01,South,184,5.0,15.0,87,0.00,,,0.00,Wunderground v.1.15,2013-02-15 01:25:00,
2013-02-14 20:30:00,40.6,37.3,30.01,SSE,153,7.0,11.0,88,0.00,,,0.00,Wunderground v.1.15,2013-02-15 01:30:00,
2013-02-14 20:35:00,40.6,37.3,30.01,South,175,3.0,12.0,88,0.00,,,0.00,Wunderground v.1.15,2013-02-15 01:35:00,
2013-02-14 20:40:00,40.5,37.2,30.01,South,182,4.0,12.0,88,0.00,,,0.00,Wunderground v.1.15,2013-02-15 01:40:00,
2013-02-14 20:46:00,40.5,37.2,30.01,South,172,6.0,12.0,88,0.00,,,0.00,Wunderground v.1.15,2013-02-15 01:46:00,
2013-02-14 20:51:00,40.5,37.2,30.01,South,184,7.0,7.0,88,0.00,,,0.00,Wunderground v.1.15,2013-02-15 01:51:00,
2013-02-14 20:56:00,40.4,37.1,30.02,South,178,5.0,8.0,88,0.00,,,0.00,Wunderground v.1.15,2013-02-15 01:56:00,
2013-02-14 21:01:00,40.4,37.1,30.02,South,183,5.0,11.0,88,0.00,,,0.00,Wunderground v.1.15,2013-02-15 02:01:00,
2013-02-14 21:06:00,40.4,37.1,30.02,South,179,5.0,11.0,88,0.00,,,0.00,Wunderground v.1.15,2013-02-15 02:06:00,
2013-02-14 21:11:00,40.3,37.0,30.01,South,176,3.0,8.0,88,0.00,,,0.00,Wunderground v.1.15,2013-02-15 02:11:00,
2013-02-14 21:16:00,40.3,37.0,30.02,South,177,3.0,10.0,88,0.00,,,0.00,Wunderground v.1.15,2013-02-15 02:16:00,
2013-02-14 21:21:00,40.2,36.9,30.02,South,181,3.0,7.0,88,0.00,,,0.00,Wunderground v.1.15,2013-02-15 02:21:00,
2013-02-14 21:26:00,40.3,37.0,30.02,SSE,165,7.0,10.0,88,0.00,,,0.00,Wunderground v.1.15,2013-02-15 02:26:00,
2013-02-14 21:31:00,40.3,37.0,30.02,SSE,161,5.0,7.0,88,0.00,,,0.00,Wunderground v.1.15,2013-02-15 02:31:00,
2013-02-14 21:36:00,40.3,37.0,30.02,South,172,3.0,9.0,88,0.00,,,0.00,Wunderground v.1.15,2013-02-15 02:36:00,
2013-02-14 21:41:00,40.3,37.0,30.01,South,180,2.0,7.0,88,0.00,,,0.00,Wunderground v.1.15,2013-02-15 02:41:00,
2013-02-14 21:46:00,40.3,37.0,30.01,South,176,7.0,10.0,88,0.00,,,0.00,Wunderground v.1.15,2013-02-15 02:46:00,
2013-02-14 21:51:00,40.2,36.9,30.01,South,178,5.0,7.0,88,0.00,,,0.00,Wunderground v.1.15,2013-02-15 02:51:00,
2013-02-14 21:56:00,40.2,36.9,30.01,South,172,5.0,7.0,88,0.00,,,0.00,Wunderground v.1.15,2013-02-15 02:56:00,
2013-02-14 22:01:00,40.2,36.9,30.01,South,178,5.0,10.0,88,0.00,,,0.00,Wunderground v.1.15,2013-02-15 03:01:00,
2013-02-14 22:06:00,40.3,37.3,30.01,SSE,166,5.0,10.0,89,0.00,,,0.00,Wunderground v.1.15,2013-02-15 03:06:00,
2013-02-14 22:11:00,40.4,37.1,30.01,South,173,6.0,11.0,88,0.00,,,0.00,Wunderground v.1.15,2013-02-15 03:11:00,
2013-02-14 22:16:00,40.5,37.2,30.02,South,184,10.0,12.0,88,0.00,,,0.00,Wunderground v.1.15,2013-02-15 03:16:00,
2013-02-14 22:21:00,40.6,37.3,30.02,South,179,10.0,11.0,88,0.00,,,0.00,Wunderground v.1.15,2013-02-15 03:21:00,
2013-02-14 22:26:00,40.6,37.3,30.02,South,183,8.0,13.0,88,0.00,,,0.00,Wunderground v.1.15,2013-02-15 03:26:00,
2013-02-14 22:31:00,40.6,37.0,30.02,South,177,6.0,12.0,87,0.00,,,0.00,Wunderground v.1.15,2013-02-15 03:31:00,
2013-02-14 22:36:00,40.6,37.0,30.02,South,178,11.0,13.0,87,0.00,,,0.00,Wunderground v.1.15,2013-02-15 03:36:00,
2013-02-14 22:41:00,40.7,36.8,30.02,South,175,6.0,7.0,86,0.00,,,0.00,Wunderground v.1.15,2013-02-15 03:41:00,
2013-02-14 22:46:00,40.7,36.8,30.02,SSE,148,6.0,12.0,86,0.00,,,0.00,Wunderground v.1.15,2013-02-15 03:46:00,
2013-02-14 22:51:00,40.7,36.8,30.02,South,178,7.0,12.0,86,0.00,,,0.00,Wunderground v.1.15,2013-02-15 03:51:00,
2013-02-14 22:56:00,40.7,36.8,30.02,SSE,163,6.0,12.0,86,0.00,,,0.00,Wunderground v.1.15,2013-02-15 03:56:00,
2013-02-14 23:01:00,40.7,36.8,30.02,SSE,154,7.0,11.0,86,0.00,,,0.00,Wunderground v.1.15,2013-02-15 04:01:00,
2013-02-14 23:07:00,40.7,37.1,30.02,South,181,10.0,11.0,87,0.00,,,0.00,Wunderground v.1.15,2013-02-15 04:07:00,
2013-02-14 23:12:00,40.8,37.2,30.02,South,173,10.0,11.0,87,0.00,,,0.00,Wunderground v.1.15,2013-02-15 04:12:00,
2013-02-14 23:17:00,40.8,36.9,30.02,SSE,158,6.0,14.0,86,0.00,,,0.00,Wunderground v.1.15,2013-02-15 04:17:00,
2013-02-14 23:22:00,40.8,36.9,30.02,SSE,159,7.0,16.0,86,0.00,,,0.00,Wunderground v.1.15,2013-02-15 04:22:00,
2013-02-14 23:27:00,40.9,37.3,30.02,SSE,157,6.0,16.0,87,0.00,,,0.00,Wunderground v.1.15,2013-02-15 04:27:00,
2013-02-14 23:32:00,40.9,37.3,30.02,SSE,153,6.0,14.0,87,0.00,,,0.00,Wunderground v.1.15,2013-02-15 04:32:00,
2013-02-14 23:38:00,40.9,37.3,30.02,South,181,11.0,14.0,87,0.00,,,0.00,Wunderground v.1.15,2013-02-15 04:38:00,
2013-02-14 23:43:00,40.9,37.6,30.02,SSE,150,4.0,15.0,88,0.00,,,0.00,Wunderground v.1.15,2013-02-15 04:43:00,
2013-02-14 23:48:00,40.9,37.9,30.01,South,178,7.0,15.0,89,0.00,,,0.00,Wunderground v.1.15,2013-02-15 04:48:00,
2013-02-14 23:53:00,40.9,37.9,30.02,South,180,12.0,13.0,89,0.00,,,0.00,Wunderground v.1.15,2013-02-15 04:53:00,
2013-02-14 23:58:00,41.1,38.4,30.02,South,180,6.0,15.0,90,0.00,,,0.00,Wunderground v.1.15,2013-02-15 04:58:00,